International Virtual Aviation Organisation

Eastern Europe and Northern Asia MCD

 

Карточка аэропорта URMM

Внимание!
Информация на этой странице в стадии наполнения.
Если вы не увидели какой-то информации, или заметили неточность - пожалуйста сообщите нам!
Спасибо!
Команда RU-STAFF
Название аэропортаМинеральные Воды
Название аэропорта (англ.)Mineralnyye Vody
Превышение1047 ft. (319.1 m.)
Координаты44°13.608', 43°4.9799999999999'
Высота перехода900m
Эшелон переходаQFE>=704mm:FL060; QFE<704mm:FL070
Коды ответчика1050-1057
Зона ОрВДРостов-на-Дону РПИ (URRV)
Данные METARURMM 101200Z 29008MPS 9999 OVC015 07/03 Q1018 R30/090070 NOSIG RMK MT OBSC QFE735/0980
Проноз погоды (TAF)URMM 101100Z 1012/1112 28005G13MPS 9999 BKN016 TX10/1111Z TN02/1103Z TEMPO 1012/1105 30003G08MPS 6000 -SHRA BKN016 BKN020CB BECMG 1105/1106 09003G08MPS TEMPO 1106/1112 6000 -SHRA BKN016 BKN020CB
NOTAMshow/hide NOTAM
AWOS   TABLE

Информация о ВПП

ВПП Длина ВПП (м.) Покрытие Курс ВПП Частота ILS
123900Бетон115111.7
303900Бетон295109.3

Диспетчерские позиции

Позывной Наименование органа УВД Частота
URMM_APPМинводы-Подход119.3
URMM_R_APPМинводы-Круг120.7
URMM_TWRМинводы-Старт128.0
URMM_GNDМинводы-Руление121.9



Спутниковое изображение